Location: Ferintosh
(52.7647°N, 112.9692°W)
Time: 00:18:16
(UTC+00:00)

S-56A Canister/Altair - Pass Details

Date: 30 May 2024
Orbit: 637 x 2489 km, 38.9° (Epoch: 19 June)

Event Time Altitude Azimuth Distance (km) Brightness Sun altitude
Rises 12:30:45 0° 240° (WSW) 6,150 11.5 8.9°
Reaches altitude 10° 12:35:14 10° 234° (SW) 5,074 11.1 9.5°
Maximum altitude 12:47:55 40° 172° (S) 2,829 10.4 11.3°
Drops below altitude 10° 12:57:40 10° 109° (ESE) 3,923 12.1 12.7°
Sets 13:00:39 0° 101° (ESE) 4,667 12.6 13.1°
